Laurinburg-Maxton, NC

10:56 AM EDT on June 25, 2017 (GMT -0400)
Laurinburg-Maxton

Weather History for KMEB - November, 2013

Change the Weather History Date:

Tuesday, November 5, 2013

  Actual Average (KHFF) Record (KHFF)
Temperature  
Mean Temperature 48 °F -  
Max Temperature 60 °F 68 °F 86 °F (2003)
Min Temperature 37 °F 45 °F 32 °F (2007)
Degree Days  
Heating Degree Days 16    
Moisture  
Dew Point 43 °F    
Average Humidity 77    
Maximum Humidity 89    
Minimum Humidity 64    
Precipitation  
Precipitation 0.00 in - - ()
Sea Level Pressure  
Sea Level Pressure 30.46 in    
Wind  
Wind Speed 10 mph (NE)    
Max Wind Speed 15 mph    
Max Gust Speed -    
Visibility 10 miles    
Events      
Averages and records for this station are not official NWS values.
T = Trace of Precipitation, MM = Missing Value Source: NWS Daily Summary

Daily Weather History Graph

Daily Weather History Graph

Search for Another Location

Airport or City:

Trip Planner

Search our weather history database for the weather conditions in past years. The results will help you decide how hot, cold, wet, or windy it might be!

Date:

Astronomy

Nov. 05, 2013 Rise Set
Actual Time 6:42 AM EST 5:19 PM EST
Civil Twilight 6:15 AM EST 5:45 PM EST
Nautical Twilight 5:45 AM EST 6:15 PM EST
Astronomical Twilight 5:16 AM EST 6:45 PM EST
Moon 8:52 AM EST (11/5) 7:22 PM EST (11/5)
Length of Visible Light 11h 30m
Length of Day
10h 37m
Waxing Crescent, 6% of the Moon is Illuminated
Nov 5
Waxing Crescent
Nov 10
First Quarter
Nov 17
Full
Nov 25
Last Quarter
Dec 2
New

Hourly Weather History & Observations

Time (EST) Temp. Windchill Dew Point Humidity Pressure Visibility Wind Dir Wind Speed Gust Speed Precip Events Conditions
12:52 AM 39.9 °F 33.9 °F 34.0 °F 79% 30.50 in 10.0 mi NE 9.2 mph - N/A   Clear
1:52 AM 39.0 °F 33.4 °F 35.1 °F 86% 30.49 in 10.0 mi NNE 8.1 mph - N/A   Clear
2:52 AM 39.0 °F 32.8 °F 35.1 °F 86% 30.48 in 10.0 mi NNE 9.2 mph - N/A   Clear
3:52 AM 39.9 °F 34.5 °F 35.1 °F 83% 30.47 in 10.0 mi NNE 8.1 mph - N/A   Clear
4:52 AM 37.9 °F 32.7 °F 35.1 °F 89% 30.47 in 10.0 mi North 6.9 mph - N/A   Clear
5:52 AM 37.9 °F 32.7 °F 35.1 °F 89% 30.49 in 10.0 mi NNE 6.9 mph - N/A   Clear
6:52 AM 39.9 °F 33.4 °F 36.0 °F 86% 30.50 in 10.0 mi NNE 10.4 mph - N/A   Scattered Clouds
7:52 AM 43.0 °F 36.8 °F 37.9 °F 82% 30.50 in 10.0 mi NE 11.5 mph - N/A   Clear
8:34 AM 45.0 °F 38.5 °F 39.0 °F 80% 30.51 in 10.0 mi NNE 13.8 mph - N/A   Mostly Cloudy
8:52 AM 46.9 °F - 39.9 °F 77% 30.51 in 10.0 mi NE 12.7 mph - N/A   Overcast
9:52 AM 52.0 °F - 42.1 °F 69% 30.50 in 10.0 mi NE 15.0 mph - N/A   Overcast
10:52 AM 54.0 °F - 43.0 °F 66% 30.51 in 10.0 mi NE 11.5 mph - N/A   Overcast
11:52 AM 57.0 °F - 45.0 °F 64% 30.48 in 10.0 mi NE 12.7 mph - N/A   Overcast
12:52 PM 57.0 °F - 48.0 °F 72% 30.45 in 9.0 mi NNE 11.5 mph - N/A   Overcast
1:32 PM 60.1 °F - 48.9 °F 67% 30.43 in 10.0 mi NE 11.5 mph - N/A   Overcast
1:52 PM 60.1 °F - 48.9 °F 67% 30.43 in 10.0 mi ENE 11.5 mph - N/A   Overcast
2:52 PM 60.1 °F - 50.0 °F 69% 30.43 in 10.0 mi NE 10.4 mph - N/A   Overcast
3:52 PM 60.1 °F - 48.9 °F 67% 30.43 in 10.0 mi NNE 10.4 mph - N/A   Overcast
4:52 PM 59.0 °F - 48.9 °F 69% 30.43 in 10.0 mi NE 10.4 mph - N/A   Overcast
5:52 PM 57.0 °F - 48.0 °F 72% 30.43 in 10.0 mi NNE 9.2 mph - N/A   Overcast
6:52 PM 55.9 °F - 48.0 °F 75% 30.44 in 10.0 mi NNE 6.9 mph - N/A   Overcast
7:52 PM 55.9 °F - 48.0 °F 75% 30.44 in 10.0 mi NE 8.1 mph - N/A   Overcast
8:52 PM 55.0 °F - 48.0 °F 77% 30.43 in 10.0 mi ENE 9.2 mph - N/A   Overcast
9:52 PM 55.0 °F - 48.0 °F 77% 30.43 in 10.0 mi ENE 8.1 mph - N/A   Overcast
10:52 PM 53.1 °F - 48.0 °F 83% 30.43 in 10.0 mi NE 9.2 mph - N/A   Partly Cloudy
11:52 PM 52.0 °F - 48.0 °F 86% 30.41 in 10.0 mi NE 6.9 mph - N/A   Clear